COSMOS 1544 (14819 NORAD) Tracking and Keplerian Element Data

This shows tracking and keplerian element data for the satellite.

Feedback or suggestion? Click here.




ElementValue
Catalog14819
NameCOSMOS 1544
Epoch Orbit18284
Epoch Day12.72264563
Epoch Year2024
RAAN114.9748
Inclination82.4714
Eccentricity0.0007903
Argument of Perigee174.3503
Mean Anonmoly185.7842
Mean Motion15.56007561
Decay Rate0.00050639
L11 14819U 84027A 24012.72264563 .00050639 00000+0 72343-3 0 9992
L22 14819 82.4714 114.9748 0007903 174.3503 185.7842 15.56007561182841



Live tracking and technical data element details for COSMOS 1544 (NORAD 14819). COSMOS 1544 can be tracked NOW for your location showing map with azimuth and elevation plus other details from your city location.







IsCatalogInMostPopularTable: catalog: 14819, numindb: 362
Update: records affected: 1



GetName: 14819 COSMOS 1544

Hit Count: updated at: Fri, 19 Apr 2024 12:45:22 GMT